Check out our new BloomSky Weather System.

Active alerts


No alerts


Thunder radar  blitzortung!


Rain radar more information rain snow radar


Visit our other weather sites:

Template documentation
and downloads

And another site



Weather Underground History page Text

Daily Summary for April 16, 2017 Units:  English    Metric   Both
« Previous Day
Next Day »
Daily Weekly Monthly Yearly Custom
  High: Low: Average:
Temperature: 84.7 °F 68.9 °F 75.9 °F
Dew Point: 72.9 °F 67.5 °F 69.6 °F
Humidity: 98 % 63 % 82 %
Wind Speed: 14.0 mph 0.0 mph 3.4 mph
Wind Gust: 18.0 mph - -
Wind:- - SE
Pressure: 30.06 in 29.97 in -
Precipitation: 0.00 in    
Historical Graphs
 
 
Tabular Data for April 16, 2017
Time Temperature Dew Point Pressure Wind Wind Speed Wind Gust Humidity Rainfall Rate (Hourly)
00:01 71.8 °F 68.7 °F 30.05 in ESE 1.0 mph 5.0 mph 90 % 0.00 in
00:06 71.8 °F 68.7 °F 30.04 in SE 1.0 mph 4.0 mph 90 % 0.00 in
00:11 71.6 °F 68.5 °F 30.05 in Calm   3.0 mph 90 % 0.00 in
00:16 71.4 °F 68.7 °F 30.04 in SE 1.0 mph 4.0 mph 91 % 0.00 in
00:21 71.4 °F 68.7 °F 30.04 in SE 2.0 mph 4.0 mph 91 % 0.00 in
00:26 71.4 °F 68.7 °F 30.05 in Calm   4.0 mph 91 % 0.00 in
00:31 71.4 °F 68.7 °F 30.05 in SE 2.0 mph 3.0 mph 91 % 0.00 in
00:36 71.2 °F 68.5 °F 30.04 in Calm   3.0 mph 91 % 0.00 in
00:41 71.1 °F 68.4 °F 30.04 in Calm   3.0 mph 91 % 0.00 in
00:46 70.9 °F 68.4 °F 30.04 in Calm   2.0 mph 92 % 0.00 in
00:51 70.9 °F 68.4 °F 30.04 in Calm   1.0 mph 92 % 0.00 in
00:56 70.9 °F 68.4 °F 30.04 in ESE 1.0 mph 2.0 mph 92 % 0.00 in
01:01 70.9 °F 68.4 °F 30.04 in Calm   2.0 mph 92 % 0.00 in
01:06 70.9 °F 68.7 °F 30.04 in ESE 2.0 mph 2.0 mph 93 % 0.00 in
01:11 70.9 °F 68.7 °F 30.04 in SE 1.0 mph 3.0 mph 93 % 0.00 in
01:16 70.9 °F 68.7 °F 30.04 in ESE 2.0 mph 3.0 mph 93 % 0.00 in
01:21 70.9 °F 68.7 °F 30.04 in ESE 2.0 mph 5.0 mph 93 % 0.00 in
01:26 70.9 °F 68.7 °F 30.04 in ESE 1.0 mph 5.0 mph 93 % 0.00 in
01:31 70.9 °F 68.7 °F 30.04 in SE 2.0 mph 5.0 mph 93 % 0.00 in
01:36 70.7 °F 68.5 °F 30.03 in SSE 2.0 mph 5.0 mph 93 % 0.00 in
01:41 70.7 °F 68.5 °F 30.03 in SE 1.0 mph 3.0 mph 93 % 0.00 in
01:46 70.5 °F 68.4 °F 30.03 in Calm   4.0 mph 93 % 0.00 in
01:51 70.5 °F 68.4 °F 30.03 in SE 1.0 mph 4.0 mph 93 % 0.00 in
01:52 70.5 °F 68.4 °F 30.03 in Calm   4.0 mph 93 % 0.00 in
01:57 70.5 °F 68.4 °F 30.02 in Calm   4.0 mph 93 % 0.00 in
02:02 70.3 °F 68.2 °F 30.02 in SE 2.0 mph 3.0 mph 93 % 0.00 in
02:07 70.3 °F 68.5 °F 30.02 in SE 3.0 mph 3.0 mph 94 % 0.00 in
02:12 70.3 °F 68.5 °F 30.02 in SE 2.0 mph 3.0 mph 94 % 0.00 in
02:17 70.3 °F 68.5 °F 30.02 in East 3.0 mph 3.0 mph 94 % 0.00 in
02:22 70.2 °F 68.4 °F 30.02 in ESE 1.0 mph 3.0 mph 94 % 0.00 in
02:27 70.2 °F 68.4 °F 30.02 in ESE 3.0 mph 3.0 mph 94 % 0.00 in
02:32 70.3 °F 68.5 °F 30.02 in ESE 1.0 mph 4.0 mph 94 % 0.00 in
02:37 70.3 °F 68.5 °F 30.02 in East 3.0 mph 4.0 mph 94 % 0.00 in
02:42 70.2 °F 68.4 °F 30.02 in ESE 1.0 mph 4.0 mph 94 % 0.00 in
02:47 70.2 °F 68.4 °F 30.02 in ESE 1.0 mph 4.0 mph 94 % 0.00 in
02:52 70.2 °F 68.7 °F 30.02 in SE 2.0 mph 4.0 mph 95 % 0.00 in
02:57 70.2 °F 68.7 °F 30.01 in SSE 3.0 mph 4.0 mph 95 % 0.00 in
03:02 70.3 °F 68.9 °F 30.01 in SSE 2.0 mph 4.0 mph 95 % 0.00 in
03:07 70.3 °F 68.9 °F 30.02 in SSE 3.0 mph 4.0 mph 95 % 0.00 in
03:12 70.3 °F 68.9 °F 30.01 in SE 1.0 mph 4.0 mph 95 % 0.00 in
03:17 70.3 °F 68.9 °F 30.01 in SE 3.0 mph 4.0 mph 95 % 0.00 in
03:22 70.3 °F 68.9 °F 30.01 in SSE 1.0 mph 4.0 mph 95 % 0.00 in
03:27 70.3 °F 68.9 °F 30.01 in SE 1.0 mph 3.0 mph 95 % 0.00 in
03:32 70.2 °F 68.7 °F 30.01 in Calm   3.0 mph 95 % 0.00 in
03:37 70.2 °F 68.7 °F 30.01 in Calm   3.0 mph 95 % 0.00 in
03:42 70.0 °F 68.5 °F 30.01 in Calm   3.0 mph 95 % 0.00 in
03:47 70.0 °F 68.5 °F 30.01 in Calm   3.0 mph 95 % 0.00 in
03:52 69.8 °F 68.4 °F 30.01 in Calm   2.0 mph 95 % 0.00 in
03:57 69.6 °F 68.2 °F 30.00 in Calm   2.0 mph 95 % 0.00 in
04:02 69.4 °F 68.0 °F 30.00 in Calm   1.0 mph 95 % 0.00 in
04:07 69.4 °F 68.0 °F 30.00 in Calm     95 % 0.00 in
04:12 69.4 °F 68.2 °F 30.00 in Calm     96 % 0.00 in
04:17 69.4 °F 68.2 °F 30.00 in Calm     96 % 0.00 in
04:22 69.3 °F 68.0 °F 30.00 in Calm     96 % 0.00 in
04:27 69.1 °F 67.8 °F 30.00 in Calm     96 % 0.00 in
04:32 68.9 °F 67.6 °F 30.00 in Calm     96 % 0.00 in
04:37 69.1 °F 67.8 °F 30.00 in SSE 1.0 mph   96 % 0.00 in
04:42 69.3 °F 68.0 °F 30.00 in Calm   2.0 mph 96 % 0.00 in
04:47 69.4 °F 68.5 °F 30.00 in Calm   2.0 mph 97 % 0.00 in
04:52 69.4 °F 68.2 °F 30.00 in Calm   2.0 mph 96 % 0.00 in
04:57 69.4 °F 68.5 °F 30.00 in Calm   1.0 mph 97 % 0.00 in
05:02 69.4 °F 68.5 °F 30.00 in Calm   2.0 mph 97 % 0.00 in
05:07 69.4 °F 68.5 °F 30.00 in Calm   2.0 mph 97 % 0.00 in
05:12 69.4 °F 68.5 °F 30.00 in SE 1.0 mph 2.0 mph 97 % 0.00 in
05:17 69.6 °F 68.7 °F 30.00 in Calm   2.0 mph 97 % 0.00 in
05:22 69.6 °F 68.7 °F 30.00 in Calm   2.0 mph 97 % 0.00 in
05:27 69.6 °F 68.7 °F 30.00 in Calm   2.0 mph 97 % 0.00 in
05:32 69.6 °F 68.7 °F 30.00 in Calm   2.0 mph 97 % 0.00 in
05:37 69.6 °F 68.7 °F 30.00 in Calm   2.0 mph 97 % 0.00 in
05:42 69.6 °F 68.7 °F 30.00 in Calm   1.0 mph 97 % 0.00 in
05:47 69.6 °F 68.7 °F 30.00 in Calm   1.0 mph 97 % 0.00 in
05:52 69.6 °F 68.7 °F 30.00 in Calm   1.0 mph 97 % 0.00 in
05:57 69.6 °F 68.7 °F 30.00 in Calm     97 % 0.00 in
06:02 69.8 °F 68.9 °F 30.00 in Calm   1.0 mph 97 % 0.00 in
06:07 70.0 °F 69.1 °F 30.00 in Calm   1.0 mph 97 % 0.00 in
06:12 70.0 °F 69.1 °F 30.00 in Calm   1.0 mph 97 % 0.00 in
06:17 70.2 °F 69.3 °F 30.01 in Calm   2.0 mph 97 % 0.00 in
06:22 70.2 °F 69.3 °F 30.01 in Calm   2.0 mph 97 % 0.00 in
06:27 70.2 °F 69.3 °F 30.01 in Calm   2.0 mph 97 % 0.00 in
06:32 70.2 °F 69.3 °F 30.01 in Calm   1.0 mph 97 % 0.00 in
06:37 70.2 °F 69.3 °F 30.01 in ESE 1.0 mph 1.0 mph 97 % 0.00 in
06:42 70.2 °F 69.3 °F 30.01 in Calm   1.0 mph 97 % 0.00 in
06:47 70.0 °F 69.1 °F 30.02 in Calm   1.0 mph 97 % 0.00 in
06:52 69.6 °F 68.7 °F 30.02 in Calm   1.0 mph 97 % 0.00 in
06:57 69.4 °F 68.5 °F 30.02 in Calm   1.0 mph 97 % 0.00 in
07:02 69.3 °F 68.4 °F 30.02 in Calm   1.0 mph 97 % 0.00 in
07:07 69.3 °F 68.4 °F 30.02 in Calm   1.0 mph 97 % 0.00 in
07:12 69.1 °F 68.2 °F 30.02 in Calm   1.0 mph 97 % 0.00 in
07:17 69.1 °F 68.2 °F 30.03 in Calm   1.0 mph 97 % 0.00 in
07:22 69.1 °F 68.5 °F 30.03 in Calm   1.0 mph 98 % 0.00 in
07:27 69.1 °F 68.5 °F 30.03 in Calm   1.0 mph 98 % 0.00 in
07:33 69.3 °F 68.7 °F 30.03 in Calm   1.0 mph 98 % 0.00 in
07:38 69.4 °F 68.9 °F 30.03 in Calm     98 % 0.00 in
07:43 69.6 °F 69.1 °F 30.03 in Calm   1.0 mph 98 % 0.00 in
07:48 70.0 °F 69.4 °F 30.03 in Calm   2.0 mph 98 % 0.00 in
07:53 70.3 °F 69.8 °F 30.04 in Calm   2.0 mph 98 % 0.00 in
07:58 70.7 °F 70.2 °F 30.03 in Calm   2.0 mph 98 % 0.00 in
08:03 70.9 °F 70.3 °F 30.03 in Calm   3.0 mph 98 % 0.00 in
08:08 71.2 °F 70.7 °F 30.03 in East 1.0 mph 3.0 mph 98 % 0.00 in
08:13 71.6 °F 71.1 °F 30.04 in Calm   3.0 mph 98 % 0.00 in
08:18 71.8 °F 71.2 °F 30.04 in SE 1.0 mph 4.0 mph 98 % 0.00 in
08:23 72.1 °F 71.2 °F 30.04 in Calm   4.0 mph 97 % 0.00 in
08:28 72.5 °F 71.6 °F 30.04 in ENE 3.0 mph 4.0 mph 97 % 0.00 in
08:33 72.7 °F 71.8 °F 30.04 in SE 2.0 mph 5.0 mph 97 % 0.00 in
08:38 72.9 °F 72.0 °F 30.04 in East 5.0 mph 6.0 mph 97 % 0.00 in
08:43 73.2 °F 72.0 °F 30.05 in SSE 3.0 mph 6.0 mph 96 % 0.00 in
08:48 73.2 °F 72.0 °F 30.04 in SSE 2.0 mph 6.0 mph 96 % 0.00 in
08:53 73.6 °F 72.1 °F 30.04 in SSW 3.0 mph 5.0 mph 95 % 0.00 in
08:58 73.8 °F 72.3 °F 30.05 in SSE 4.0 mph 6.0 mph 95 % 0.00 in
09:03 73.8 °F 72.0 °F 30.05 in SE 4.0 mph 8.0 mph 94 % 0.00 in
09:08 73.9 °F 72.1 °F 30.05 in SE 4.0 mph 8.0 mph 94 % 0.00 in
09:13 74.1 °F 72.0 °F 30.05 in South 5.0 mph 8.0 mph 93 % 0.00 in
09:18 74.8 °F 72.7 °F 30.05 in SE 8.0 mph 9.0 mph 93 % 0.00 in
09:23 75.4 °F 72.5 °F 30.06 in SSE 3.0 mph 10.0 mph 91 % 0.00 in
09:28 75.6 °F 72.5 °F 30.06 in South 2.0 mph 10.0 mph 90 % 0.00 in
09:33 76.1 °F 72.3 °F 30.06 in ESE 4.0 mph 10.0 mph 88 % 0.00 in
09:38 76.8 °F 72.7 °F 30.06 in South 4.0 mph 9.0 mph 87 % 0.00 in
09:43 77.2 °F 72.3 °F 30.06 in East 5.0 mph 9.0 mph 85 % 0.00 in
09:48 77.0 °F 72.1 °F 30.06 in South 4.0 mph 10.0 mph 85 % 0.00 in
09:53 76.8 °F 72.0 °F 30.06 in SE 4.0 mph 10.0 mph 85 % 0.00 in
09:58 77.4 °F 72.5 °F 30.06 in SE 4.0 mph 10.0 mph 85 % 0.00 in
10:03 77.7 °F 72.5 °F 30.06 in SSE 5.0 mph 10.0 mph 84 % 0.00 in
10:08 78.3 °F 72.0 °F 30.06 in ESE 6.0 mph 11.0 mph 81 % 0.00 in
10:13 78.1 °F 71.4 °F 30.06 in SE 5.0 mph 11.0 mph 80 % 0.00 in
10:18 78.1 °F 72.1 °F 30.06 in ESE 4.0 mph 11.0 mph 82 % 0.00 in
10:21 78.4 °F 72.5 °F 30.06 in SE 3.0 mph 11.0 mph 82 % 0.00 in
10:26 79.0 °F 71.6 °F 30.06 in South 6.0 mph 13.0 mph 78 % 0.00 in
10:31 79.3 °F 72.3 °F 30.06 in South 7.0 mph 13.0 mph 79 % 0.00 in
10:36 79.3 °F 72.3 °F 30.06 in SE 4.0 mph 13.0 mph 79 % 0.00 in
10:41 79.3 °F 72.0 °F 30.06 in ESE 2.0 mph 11.0 mph 78 % 0.00 in
10:46 79.5 °F 72.9 °F 30.06 in SE 3.0 mph 9.0 mph 80 % 0.00 in
10:51 80.1 °F 72.5 °F 30.06 in ESE 8.0 mph 9.0 mph 78 % 0.00 in
10:56 80.2 °F 72.0 °F 30.06 in SE 7.0 mph 9.0 mph 76 % 0.00 in
11:01 80.4 °F 70.9 °F 30.06 in SE 9.0 mph 10.0 mph 73 % 0.00 in
11:06 80.4 °F 70.9 °F 30.06 in SE 9.0 mph 10.0 mph 73 % 0.00 in
11:11 80.6 °F 71.6 °F 30.06 in SSE 7.0 mph 13.0 mph 74 % 0.00 in
11:16 80.4 °F 71.4 °F 30.06 in SSW 2.0 mph 13.0 mph 74 % 0.00 in
11:21 80.2 °F 71.2 °F 30.06 in South 3.0 mph 13.0 mph 74 % 0.00 in
11:26 80.2 °F 72.0 °F 30.06 in SSE 4.0 mph 11.0 mph 76 % 0.00 in
11:31 81.0 °F 71.4 °F 30.06 in ESE 12.0 mph 12.0 mph 73 % 0.00 in
11:36 81.3 °F 71.8 °F 30.06 in ESE 7.0 mph 12.0 mph 73 % 0.00 in
11:41 81.7 °F 71.4 °F 30.06 in South 7.0 mph 12.0 mph 71 % 0.00 in
11:46 81.9 °F 72.3 °F 30.06 in SSE 1.0 mph 12.0 mph 73 % 0.00 in
11:51 82.0 °F 71.2 °F 30.05 in SE 4.0 mph 12.0 mph 70 % 0.00 in
11:56 82.2 °F 71.4 °F 30.05 in SSE 8.0 mph 10.0 mph 70 % 0.00 in
12:01 82.0 °F 71.8 °F 30.05 in SSW 5.0 mph 10.0 mph 71 % 0.00 in
12:06 82.2 °F 71.4 °F 30.05 in SSW 5.0 mph 10.0 mph 70 % 0.00 in
12:11 82.6 °F 71.8 °F 30.05 in ESE 6.0 mph 10.0 mph 70 % 0.00 in
12:16 82.2 °F 71.1 °F 30.05 in South 5.0 mph 12.0 mph 69 % 0.00 in
12:21 81.9 °F 70.7 °F 30.04 in South 4.0 mph 12.0 mph 69 % 0.00 in
12:26 81.9 °F 72.0 °F 30.04 in SSW 3.0 mph 12.0 mph 72 % 0.00 in
12:31 82.4 °F 71.2 °F 30.04 in SSW 5.0 mph 9.0 mph 69 % 0.00 in
12:36 82.2 °F 71.1 °F 30.04 in SSE 2.0 mph 8.0 mph 69 % 0.00 in
12:41 82.0 °F 70.9 °F 30.04 in SE 3.0 mph 8.0 mph 69 % 0.00 in
12:46 82.4 °F 71.6 °F 30.04 in ESE 8.0 mph 12.0 mph 70 % 0.00 in
12:51 82.6 °F 70.9 °F 30.03 in South 5.0 mph 12.0 mph 68 % 0.00 in
12:56 83.3 °F 72.1 °F 30.03 in SW 8.0 mph 12.0 mph 69 % 0.00 in
12:57 83.3 °F 72.1 °F 30.03 in SSE 5.0 mph 12.0 mph 69 % 0.00 in
13:02 83.7 °F 71.6 °F 30.03 in SE 5.0 mph 10.0 mph 67 % 0.00 in
13:07 83.7 °F 71.1 °F 30.03 in South 8.0 mph 8.0 mph 66 % 0.00 in
13:12 83.5 °F 70.9 °F 30.03 in SSE 4.0 mph 11.0 mph 66 % 0.00 in
13:17 83.8 °F 72.1 °F 30.02 in SSE 6.0 mph 11.0 mph 68 % 0.00 in
13:22 84.6 °F 72.3 °F 30.02 in South 9.0 mph 11.0 mph 67 % 0.00 in
13:27 84.7 °F 72.1 °F 30.02 in SE 6.0 mph 12.0 mph 66 % 0.00 in
13:32 84.7 °F 71.6 °F 30.02 in ESE 9.0 mph 12.0 mph 65 % 0.00 in
13:37 84.4 °F 71.2 °F 30.02 in East 4.0 mph 12.0 mph 65 % 0.00 in
13:42 84.0 °F 71.1 °F 30.02 in SSW 7.0 mph 12.0 mph 65 % 0.00 in
13:47 83.8 °F 71.2 °F 30.02 in SE 11.0 mph 13.0 mph 66 % 0.00 in
13:52 83.1 °F 70.5 °F 30.02 in ESE 9.0 mph 13.0 mph 66 % 0.00 in
13:57 83.8 °F 71.2 °F 30.02 in SE 10.0 mph 14.0 mph 66 % 0.00 in
14:02 83.7 °F 71.6 °F 30.02 in East 9.0 mph 18.0 mph 67 % 0.00 in
14:07 84.0 °F 72.0 °F 30.02 in SE 5.0 mph 18.0 mph 67 % 0.00 in
14:12 84.2 °F 71.2 °F 30.02 in SE 12.0 mph 18.0 mph 65 % 0.00 in
14:17 84.0 °F 71.1 °F 30.01 in ESE 8.0 mph 15.0 mph 65 % 0.00 in
14:22 83.7 °F 71.1 °F 30.02 in SSE 3.0 mph 15.0 mph 66 % 0.00 in
14:27 83.1 °F 70.5 °F 30.02 in ESE 7.0 mph 15.0 mph 66 % 0.00 in
14:32 82.8 °F 70.7 °F 30.01 in SE 6.0 mph 16.0 mph 67 % 0.00 in
14:37 82.2 °F 70.2 °F 30.01 in SSE 3.0 mph 16.0 mph 67 % 0.00 in
14:42 82.2 °F 71.1 °F 30.01 in SSW 5.0 mph 16.0 mph 69 % 0.00 in
14:47 82.0 °F 70.3 °F 30.01 in SSW 8.0 mph 12.0 mph 68 % 0.00 in
14:52 81.9 °F 70.3 °F 30.01 in East 7.0 mph 11.0 mph 68 % 0.00 in
14:57 81.7 °F 70.2 °F 30.01 in SSW 2.0 mph 12.0 mph 68 % 0.00 in
15:02 81.7 °F 70.9 °F 30.01 in SE 4.0 mph 12.0 mph 70 % 0.00 in
15:07 81.3 °F 70.5 °F 30.01 in ESE 9.0 mph 12.0 mph 70 % 0.00 in
15:12 81.3 °F 70.5 °F 30.01 in ESE 3.0 mph 11.0 mph 70 % 0.00 in
15:17 81.3 °F 71.1 °F 30.01 in East 4.0 mph 10.0 mph 71 % 0.00 in
15:22 81.5 °F 70.3 °F 30.00 in SE 4.0 mph 11.0 mph 69 % 0.00 in
15:27 81.9 °F 69.8 °F 30.00 in East 8.0 mph 11.0 mph 67 % 0.00 in
15:32 82.0 °F 70.0 °F 30.00 in SE 3.0 mph 14.0 mph 67 % 0.00 in
15:33 82.0 °F 70.0 °F 30.00 in SE 11.0 mph 14.0 mph 67 % 0.00 in
15:38 82.0 °F 69.6 °F 30.00 in SE 5.0 mph 16.0 mph 66 % 0.00 in
15:43 82.2 °F 69.8 °F 30.00 in South 10.0 mph 16.0 mph 66 % 0.00 in
15:48 82.2 °F 69.8 °F 30.00 in SW 5.0 mph 16.0 mph 66 % 0.00 in
15:53 82.2 °F 69.3 °F 30.00 in SE 7.0 mph 16.0 mph 65 % 0.00 in
15:58 82.2 °F 69.3 °F 29.99 in SSE 4.0 mph 16.0 mph 65 % 0.00 in
16:03 82.2 °F 69.3 °F 29.99 in SSE 6.0 mph 14.0 mph 65 % 0.00 in
16:08 82.9 °F 69.1 °F 29.99 in SSE 5.0 mph 14.0 mph 63 % 0.00 in
16:13 82.9 °F 69.4 °F 29.99 in ESE 2.0 mph 14.0 mph 64 % 0.00 in
16:18 82.8 °F 69.3 °F 30.00 in ESE 4.0 mph 14.0 mph 64 % 0.00 in
16:23 82.2 °F 68.9 °F 30.00 in SE 8.0 mph 12.0 mph 64 % 0.00 in
16:28 82.0 °F 69.1 °F 29.99 in SSE 3.0 mph 12.0 mph 65 % 0.00 in
16:29 82.0 °F 69.1 °F 29.99 in East 6.0 mph 12.0 mph 65 % 0.00 in
16:34 81.9 °F 68.9 °F 30.00 in East 12.0 mph 12.0 mph 65 % 0.00 in
16:39 82.0 °F 68.7 °F 29.99 in SSE 5.0 mph 14.0 mph 64 % 0.00 in
16:44 82.0 °F 68.7 °F 29.99 in SE 4.0 mph 14.0 mph 64 % 0.00 in
16:49 82.0 °F 68.7 °F 29.99 in East 5.0 mph 14.0 mph 64 % 0.00 in
16:54 82.0 °F 69.1 °F 29.99 in SE 4.0 mph 10.0 mph 65 % 0.00 in
16:59 82.0 °F 69.1 °F 29.99 in ESE 10.0 mph 12.0 mph 65 % 0.00 in
17:04 82.0 °F 69.1 °F 29.99 in SE 6.0 mph 12.0 mph 65 % 0.00 in
17:09 81.9 °F 69.4 °F 29.99 in SSE 5.0 mph 12.0 mph 66 % 0.00 in
17:14 81.7 °F 69.3 °F 29.99 in ESE 5.0 mph 11.0 mph 66 % 0.00 in
17:19 81.7 °F 69.3 °F 29.99 in SSE 5.0 mph 11.0 mph 66 % 0.00 in
17:24 81.3 °F 69.3 °F 29.98 in SSE 4.0 mph 8.0 mph 67 % 0.00 in
17:29 81.3 °F 69.8 °F 29.98 in SSE 7.0 mph 9.0 mph 68 % 0.00 in
17:34 81.3 °F 69.8 °F 29.97 in SSE 6.0 mph 9.0 mph 68 % 0.00 in
17:39 81.1 °F 69.1 °F 29.97 in SE 10.0 mph 10.0 mph 67 % 0.00 in
17:44 81.1 °F 69.6 °F 29.97 in South 14.0 mph 15.0 mph 68 % 0.00 in
17:49 81.3 °F 69.3 °F 29.97 in SE 9.0 mph 15.0 mph 67 % 0.00 in
17:54 81.7 °F 69.6 °F 29.97 in SSE 12.0 mph 15.0 mph 67 % 0.00 in
17:59 81.7 °F 68.7 °F 29.97 in SE 9.0 mph 14.0 mph 65 % 0.00 in
18:04 81.7 °F 69.3 °F 29.97 in SSE 7.0 mph 15.0 mph 66 % 0.00 in
18:09 81.3 °F 68.9 °F 29.98 in SSE 5.0 mph 15.0 mph 66 % 0.00 in
18:14 81.1 °F 68.7 °F 29.99 in SE 5.0 mph 15.0 mph 66 % 0.00 in
18:19 81.0 °F 68.5 °F 29.99 in SSW 5.0 mph 14.0 mph 66 % 0.00 in
18:29 81.0 °F 68.9 °F 29.99 in SE 6.0 mph 14.0 mph 67 % 0.00 in
18:34 80.8 °F 68.7 °F 29.99 in East 3.0 mph 14.0 mph 67 % 0.00 in
18:39 80.8 °F 68.7 °F 29.99 in SSE 7.0 mph 14.0 mph 67 % 0.00 in
18:44 80.4 °F 68.5 °F 29.99 in SE 4.0 mph 13.0 mph 67 % 0.00 in
18:49 80.2 °F 68.7 °F 30.00 in SSE 5.0 mph 9.0 mph 68 % 0.00 in
18:54 80.1 °F 68.5 °F 30.00 in ESE 7.0 mph 10.0 mph 68 % 0.00 in
18:59 79.9 °F 68.7 °F 30.00 in SE 4.0 mph 10.0 mph 69 % 0.00 in
19:04 79.9 °F 69.3 °F 30.00 in ESE 9.0 mph 10.0 mph 70 % 0.00 in
19:09 79.7 °F 69.1 °F 30.00 in ESE 7.0 mph 11.0 mph 70 % 0.00 in
19:14 79.5 °F 68.9 °F 30.00 in South 4.0 mph 11.0 mph 70 % 0.00 in
19:19 79.3 °F 68.7 °F 30.01 in SSE 7.0 mph 11.0 mph 70 % 0.00 in
19:24 79.0 °F 68.4 °F 30.01 in SE 5.0 mph 11.0 mph 70 % 0.00 in
19:29 79.0 °F 68.7 °F 30.01 in South 6.0 mph 11.0 mph 71 % 0.00 in
19:34 78.8 °F 68.5 °F 30.01 in SSE 4.0 mph 11.0 mph 71 % 0.00 in
19:39 78.6 °F 68.9 °F 30.00 in ESE 3.0 mph 12.0 mph 72 % 0.00 in
19:44 78.4 °F 68.7 °F 30.01 in SSE 6.0 mph 12.0 mph 72 % 0.00 in
19:50 78.1 °F 68.4 °F 30.01 in East 4.0 mph 12.0 mph 72 % 0.00 in
19:55 77.9 °F 68.5 °F 30.00 in SSE 4.0 mph 11.0 mph 73 % 0.00 in
20:00 77.7 °F 68.4 °F 30.00 in SE 6.0 mph 9.0 mph 73 % 0.00 in
20:05 77.5 °F 68.2 °F 30.00 in SE 4.0 mph 9.0 mph 73 % 0.00 in
20:10 77.4 °F 68.0 °F 30.01 in SSW 4.0 mph 11.0 mph 73 % 0.00 in
20:15 77.2 °F 67.8 °F 30.01 in ESE 7.0 mph 11.0 mph 73 % 0.00 in
20:20 77.0 °F 68.0 °F 30.01 in SSE 5.0 mph 11.0 mph 74 % 0.00 in
20:25 76.8 °F 67.8 °F 30.01 in South 6.0 mph 9.0 mph 74 % 0.00 in
20:30 76.8 °F 67.8 °F 30.01 in SE 6.0 mph 9.0 mph 74 % 0.00 in
20:35 76.6 °F 67.6 °F 30.01 in SSE 5.0 mph 10.0 mph 74 % 0.00 in
20:40 76.3 °F 67.8 °F 30.01 in ESE 4.0 mph 10.0 mph 75 % 0.00 in
20:45 76.1 °F 67.6 °F 30.00 in SSE 7.0 mph 10.0 mph 75 % 0.00 in
20:50 75.9 °F 67.8 °F 30.01 in South 4.0 mph 10.0 mph 76 % 0.00 in
20:55 75.7 °F 67.6 °F 30.01 in ESE 3.0 mph 8.0 mph 76 % 0.00 in
21:00 75.6 °F 67.5 °F 30.00 in SE 4.0 mph 7.0 mph 76 % 0.00 in
21:05 75.6 °F 67.8 °F 30.00 in South 2.0 mph 7.0 mph 77 % 0.00 in
21:10 75.4 °F 67.6 °F 30.00 in ESE 4.0 mph 7.0 mph 77 % 0.00 in
21:15 75.4 °F 68.0 °F 30.00 in South 4.0 mph 8.0 mph 78 % 0.00 in
21:20 75.4 °F 68.0 °F 30.01 in ESE 3.0 mph 8.0 mph 78 % 0.00 in
21:25 75.2 °F 68.2 °F 30.01 in SSE 4.0 mph 8.0 mph 79 % 0.00 in
21:30 75.0 °F 68.0 °F 30.02 in South 3.0 mph 7.0 mph 79 % 0.00 in
21:35 74.8 °F 68.2 °F 30.02 in South 2.0 mph 7.0 mph 80 % 0.00 in
21:40 74.7 °F 68.0 °F 30.02 in SSE 1.0 mph 7.0 mph 80 % 0.00 in
21:45 74.5 °F 68.2 °F 30.02 in South 2.0 mph 7.0 mph 81 % 0.00 in
21:50 74.1 °F 68.2 °F 30.03 in South 3.0 mph 5.0 mph 82 % 0.00 in
21:55 73.9 °F 68.2 °F 30.03 in SSE 2.0 mph 6.0 mph 82 % 0.00 in
22:00 73.8 °F 68.4 °F 30.03 in SSW 1.0 mph 6.0 mph 83 % 0.00 in
22:05 73.8 °F 68.4 °F 30.03 in South 2.0 mph 6.0 mph 83 % 0.00 in
22:10 73.6 °F 68.4 °F 30.03 in SE 2.0 mph 4.0 mph 84 % 0.00 in
22:15 73.4 °F 68.2 °F 30.03 in SSE 2.0 mph 6.0 mph 84 % 0.00 in
22:21 73.4 °F 68.5 °F 30.02 in ESE 2.0 mph 6.0 mph 85 % 0.00 in
22:31 73.4 °F 68.5 °F 30.03 in SSE 5.0 mph 5.0 mph 85 % 0.00 in
22:36 73.4 °F 68.9 °F 30.02 in SE 1.0 mph 9.0 mph 86 % 0.00 in
22:41 73.2 °F 68.7 °F 30.02 in ESE 3.0 mph 9.0 mph 86 % 0.00 in
22:46 73.2 °F 68.7 °F 30.02 in SE 3.0 mph 9.0 mph 86 % 0.00 in
22:51 73.0 °F 68.9 °F 30.02 in SSE 3.0 mph 6.0 mph 87 % 0.00 in
22:56 72.9 °F 68.7 °F 30.02 in East 2.0 mph 5.0 mph 87 % 0.00 in
23:01 72.7 °F 68.9 °F 30.02 in ESE 2.0 mph 5.0 mph 88 % 0.00 in
23:06 72.7 °F 68.9 °F 30.01 in ESE 1.0 mph 5.0 mph 88 % 0.00 in
23:11 72.5 °F 68.7 °F 30.02 in Calm   3.0 mph 88 % 0.00 in
23:16 72.3 °F 68.5 °F 30.02 in Calm   3.0 mph 88 % 0.00 in
23:21 72.1 °F 68.7 °F 30.02 in Calm   2.0 mph 89 % 0.00 in
23:26 72.0 °F 68.9 °F 30.01 in ESE 1.0 mph 3.0 mph 90 % 0.00 in
23:31 72.0 °F 68.9 °F 30.02 in Calm   3.0 mph 90 % 0.00 in
23:36 71.8 °F 68.7 °F 30.01 in Calm   3.0 mph 90 % 0.00 in
23:41 71.6 °F 68.5 °F 30.01 in SE 1.0 mph 2.0 mph 90 % 0.00 in
23:46 71.4 °F 68.7 °F 30.02 in Calm   1.0 mph 91 % 0.00 in
23:51 71.2 °F 68.5 °F 30.02 in Calm   1.0 mph 91 % 0.00 in
23:56 71.1 °F 68.4 °F 30.01 in SE 1.0 mph 1.0 mph 91 % 0.00 in
Spring, Texas: Villages of Bridgestone
Compliments of Weather Underground - 2.75 mb

Script developed by  Jim McMurry - jmcmurry@mwt.net Adapted for the template by  Wim van der Kuil - Leuven-Template.eu

You find our weather info also at:

UK Metoffice

WeatherCloud

Weather Underground

Mid-South Weather Network

AWEKAS

Citizen Weather Observer Program (CWOP)

HAMweather, WeatherForYou, PWS Weather

Equipment we use:

Weather-station
Davis Vantage Vue

Weather-program
Meteohub

Weather-server
Debian 7.9 x86 (Guest)

Provider
DreamHost

Davis Vantage Vue

Meteohub

Debian 7.9 x86 (Guest)

DreamHost